User: anonymous   Login
Location: Unspecified
(0.0000°N, 0.0000°E)
Time: 21:48:59
(UTC+00:00)
Language:

Radcal - Orbit

View from above orbital plane
View from above orbital plane
View from above satellite
View from above satellite

Ground track
Ground track

The orbit data is extracted from the following two-line orbital elements,

1 22698U 93041A   24108.03389712  .00000389  00000-0  15897-3 0  9995
2 22698  89.4992 105.7794 0086265 254.0660 105.1015 14.23759069599869
Epoch (UTC): 17 April 2024 00:48:48
Eccentricity: 0.0086265
inclination: 89.4992°
perigee height: 750 km
apogee height: 875 km
right ascension of ascending node: 105.7794°
argument of perigee: 254.0660°
revolutions per day: 14.23759069
mean anomaly at epoch: 105.1015°
orbit number at epoch: 59986

The dashed part of the orbit path shows where the satellite is in the earth's shadow,  

DLR